Time,TemperatureF,DewpointF,PressureIn,WindDirection,WindDirectionDegrees,WindSpeedMPH,WindSpeedGustMPH,Humidity,HourlyPrecipIn,Conditions,Clouds,dailyrainin,SolarRadiationWatts/m^2,SoftwareType,DateUTC
2013-02-07 00:22:00,20.0,20.0,-100.00,NNE,31,7.0,11.0,100,0.00,,,0.07,0.000000,,2013-02-07 06:22:00,
2013-02-07 00:32:00,20.0,20.0,-100.00,NNE,31,7.0,11.0,100,0.00,,,0.07,0.000000,,2013-02-07 06:32:00,
2013-02-07 00:43:00,20.0,20.0,-100.00,NNE,31,7.0,11.0,100,0.00,,,0.07,0.000000,,2013-02-07 06:43:00,
2013-02-07 00:52:00,20.0,20.0,-100.00,NNE,31,7.0,11.0,100,0.00,,,0.07,0.000000,,2013-02-07 06:52:00,
2013-02-07 01:22:00,19.0,19.0,-100.00,NNE,19,7.0,9.0,99,0.00,,,0.07,0.000000,,2013-02-07 07:22:00,
2013-02-07 01:32:00,19.0,19.0,-100.00,NNE,19,7.0,9.0,99,0.00,,,0.07,0.000000,,2013-02-07 07:32:00,
2013-02-07 01:42:00,19.0,19.0,-100.00,NNE,19,7.0,9.0,99,0.00,,,0.07,0.000000,,2013-02-07 07:42:00,
2013-02-07 01:52:00,19.0,19.0,-100.00,NNE,19,7.0,9.0,99,0.00,,,0.07,0.000000,,2013-02-07 07:52:00,
2013-02-07 02:21:00,18.0,18.0,-100.00,NNE,30,7.0,10.0,98,0.00,,,0.07,0.000000,,2013-02-07 08:21:00,
2013-02-07 02:32:00,18.0,18.0,-100.00,NNE,30,7.0,10.0,98,0.00,,,0.07,0.000000,,2013-02-07 08:32:00,
2013-02-07 02:42:00,18.0,18.0,-100.00,NNE,30,7.0,10.0,98,0.00,,,0.07,0.000000,,2013-02-07 08:42:00,
2013-02-07 02:52:00,18.0,18.0,-100.00,NNE,30,7.0,10.0,98,0.00,,,0.07,0.000000,,2013-02-07 08:52:00,
2013-02-07 03:21:00,16.0,15.0,-100.00,NNE,25,7.0,9.0,97,0.00,,,0.07,0.000000,,2013-02-07 09:21:00,
2013-02-07 03:32:00,16.0,15.0,-100.00,NNE,25,7.0,9.0,97,0.00,,,0.07,0.000000,,2013-02-07 09:32:00,
2013-02-07 03:41:00,16.0,15.0,-100.00,NNE,25,7.0,9.0,97,0.00,,,0.07,0.000000,,2013-02-07 09:41:00,
2013-02-07 03:52:00,16.0,15.0,-100.00,NNE,25,7.0,9.0,97,0.00,,,0.07,0.000000,,2013-02-07 09:52:00,
2013-02-07 04:22:00,16.0,15.0,-100.00,NE,39,6.0,8.0,95,0.00,,,0.07,0.000000,,2013-02-07 10:22:00,
2013-02-07 04:32:00,16.0,15.0,-100.00,NE,39,6.0,8.0,95,0.00,,,0.07,0.000000,,2013-02-07 10:32:00,
2013-02-07 04:42:00,16.0,15.0,-100.00,NE,39,6.0,8.0,95,0.00,,,0.07,0.000000,,2013-02-07 10:42:00,
2013-02-07 04:51:00,16.0,15.0,-100.00,NE,39,6.0,8.0,95,0.00,,,0.07,0.000000,,2013-02-07 10:51:00,
2013-02-07 05:23:00,16.0,15.0,-100.00,NNE,15,5.0,8.0,94,0.00,,,0.07,0.000000,,2013-02-07 11:23:00,
2013-02-07 05:32:00,16.0,15.0,-100.00,NNE,15,5.0,8.0,94,0.00,,,0.07,0.000000,,2013-02-07 11:32:00,
2013-02-07 05:44:00,16.0,15.0,-100.00,NNE,15,5.0,8.0,94,0.00,,,0.07,0.000000,,2013-02-07 11:44:00,
2013-02-07 05:52:00,16.0,15.0,-100.00,NNE,15,5.0,8.0,94,0.00,,,0.07,0.000000,,2013-02-07 11:52:00,
2013-02-07 06:22:00,15.0,14.0,-100.00,NE,44,5.0,8.0,94,0.00,,,0.07,0.000000,,2013-02-07 12:22:00,
2013-02-07 06:33:00,15.0,14.0,-100.00,NE,44,5.0,8.0,94,0.00,,,0.07,0.000000,,2013-02-07 12:33:00,
2013-02-07 06:42:00,15.0,14.0,-100.00,NE,44,5.0,8.0,94,0.00,,,0.07,0.000000,,2013-02-07 12:42:00,
2013-02-07 06:52:00,15.0,14.0,-100.00,NE,44,5.0,8.0,94,0.00,,,0.07,0.000000,,2013-02-07 12:52:00,
2013-02-07 07:22:00,15.0,14.0,-100.00,NNE,33,5.0,6.0,94,0.00,,,0.07,0.000000,,2013-02-07 13:22:00,
2013-02-07 07:32:00,15.0,14.0,-100.00,NNE,33,5.0,6.0,94,0.00,,,0.07,0.000000,,2013-02-07 13:32:00,
2013-02-07 07:42:00,15.0,14.0,-100.00,NNE,33,5.0,6.0,94,0.00,,,0.07,0.000000,,2013-02-07 13:42:00,
2013-02-07 07:52:00,15.0,14.0,-100.00,NNE,33,5.0,6.0,94,0.00,,,0.07,0.000000,,2013-02-07 13:52:00,
2013-02-07 08:22:00,14.0,12.0,-100.00,North,351,6.0,8.0,93,0.00,,,0.07,3.000000,,2013-02-07 14:22:00,
2013-02-07 08:32:00,14.0,12.0,-100.00,North,351,6.0,8.0,93,0.00,,,0.07,3.000000,,2013-02-07 14:32:00,
2013-02-07 08:42:00,14.0,12.0,-100.00,North,351,6.0,8.0,93,0.00,,,0.07,3.000000,,2013-02-07 14:42:00,
2013-02-07 08:52:00,14.0,12.0,-100.00,North,351,6.0,8.0,93,0.00,,,0.07,3.000000,,2013-02-07 14:52:00,
2013-02-07 09:22:00,13.0,11.0,-100.00,North,2,3.0,9.0,91,0.00,,,0.07,41.000000,,2013-02-07 15:22:00,
2013-02-07 09:32:00,13.0,11.0,-100.00,North,2,3.0,9.0,91,0.00,,,0.07,41.000000,,2013-02-07 15:32:00,
2013-02-07 09:42:00,13.0,11.0,-100.00,North,2,3.0,9.0,91,0.00,,,0.07,41.000000,,2013-02-07 15:42:00,
2013-02-07 09:52:00,13.0,11.0,-100.00,North,2,3.0,9.0,91,0.00,,,0.07,41.000000,,2013-02-07 15:52:00,
2013-02-07 10:21:00,15.0,13.0,-100.00,NNE,26,4.0,6.0,90,0.00,,,0.07,129.000000,,2013-02-07 16:21:00,
2013-02-07 10:32:00,15.0,13.0,-100.00,NNE,26,4.0,6.0,90,0.00,,,0.07,129.000000,,2013-02-07 16:32:00,
2013-02-07 10:42:00,15.0,13.0,-100.00,NNE,26,4.0,6.0,90,0.00,,,0.07,129.000000,,2013-02-07 16:42:00,
2013-02-07 10:52:00,15.0,13.0,-100.00,NNE,26,4.0,6.0,90,0.00,,,0.07,129.000000,,2013-02-07 16:52:00,
2013-02-07 11:21:00,15.0,13.0,-100.00,NE,38,4.0,5.0,90,0.00,,,0.07,150.000000,,2013-02-07 17:21:00,
2013-02-07 11:32:00,15.0,13.0,-100.00,NE,38,4.0,5.0,90,0.00,,,0.07,150.000000,,2013-02-07 17:32:00,
2013-02-07 11:43:00,15.0,13.0,-100.00,NE,38,4.0,5.0,90,0.00,,,0.07,150.000000,,2013-02-07 17:43:00,
2013-02-07 11:52:00,15.0,13.0,-100.00,NE,38,4.0,5.0,90,0.00,,,0.07,150.000000,,2013-02-07 17:52:00,
2013-02-07 12:23:00,16.0,13.0,-100.00,NNE,33,3.0,4.0,89,0.00,,,0.06,233.000000,,2013-02-07 18:23:00,
2013-02-07 12:32:00,16.0,13.0,-100.00,NNE,33,3.0,4.0,89,0.00,,,0.06,233.000000,,2013-02-07 18:32:00,
2013-02-07 12:42:00,16.0,13.0,-100.00,NNE,33,3.0,4.0,89,0.00,,,0.06,233.000000,,2013-02-07 18:42:00,
2013-02-07 12:52:00,16.0,13.0,-100.00,NNE,33,3.0,4.0,89,0.00,,,0.06,233.000000,,2013-02-07 18:52:00,
2013-02-07 13:22:00,19.0,16.0,-100.00,NE,51,3.0,4.0,89,0.00,,,0.06,296.000000,,2013-02-07 19:22:00,
2013-02-07 13:32:00,19.0,16.0,-100.00,NE,51,3.0,4.0,89,0.00,,,0.06,296.000000,,2013-02-07 19:32:00,
2013-02-07 13:42:00,19.0,16.0,-100.00,NE,51,3.0,4.0,89,0.00,,,0.06,296.000000,,2013-02-07 19:42:00,
2013-02-07 13:52:00,19.0,16.0,-100.00,NE,51,3.0,4.0,89,0.00,,,0.06,296.000000,,2013-02-07 19:52:00,
2013-02-07 14:22:00,20.0,18.0,-100.00,ENE,64,3.0,4.0,90,0.00,,,0.03,289.000000,,2013-02-07 20:22:00,
2013-02-07 14:32:00,20.0,18.0,-100.00,ENE,64,3.0,4.0,90,0.00,,,0.03,289.000000,,2013-02-07 20:32:00,
2013-02-07 14:42:00,20.0,18.0,-100.00,ENE,64,3.0,4.0,90,0.00,,,0.03,289.000000,,2013-02-07 20:42:00,
2013-02-07 14:52:00,20.0,18.0,-100.00,ENE,64,3.0,4.0,90,0.00,,,0.03,289.000000,,2013-02-07 20:52:00,
2013-02-07 15:21:00,20.0,18.0,-100.00,ENE,62,2.0,4.0,91,0.00,,,0.00,291.000000,,2013-02-07 21:21:00,
2013-02-07 15:32:00,20.0,18.0,-100.00,ENE,62,2.0,4.0,91,0.00,,,0.00,291.000000,,2013-02-07 21:32:00,
2013-02-07 15:42:00,20.0,18.0,-100.00,ENE,62,2.0,4.0,91,0.00,,,0.00,291.000000,,2013-02-07 21:42:00,
2013-02-07 15:52:00,20.0,18.0,-100.00,ENE,62,2.0,4.0,91,0.00,,,0.00,291.000000,,2013-02-07 21:52:00,
2013-02-07 16:21:00,19.0,17.0,-100.00,NE,51,2.0,3.0,92,0.00,,,0.00,158.000000,,2013-02-07 22:21:00,
2013-02-07 16:32:00,19.0,17.0,-100.00,NE,51,2.0,3.0,92,0.00,,,0.00,158.000000,,2013-02-07 22:32:00,
2013-02-07 16:42:00,19.0,17.0,-100.00,NE,51,2.0,3.0,92,0.00,,,0.00,158.000000,,2013-02-07 22:42:00,
2013-02-07 16:51:00,19.0,17.0,-100.00,NE,51,2.0,3.0,92,0.00,,,0.00,158.000000,,2013-02-07 22:51:00,
2013-02-07 17:21:00,17.0,15.0,-100.00,ENE,70,2.0,3.0,92,0.00,,,0.00,93.000000,,2013-02-07 23:21:00,
2013-02-07 17:32:00,17.0,15.0,-100.00,ENE,70,2.0,3.0,92,0.00,,,0.00,93.000000,,2013-02-07 23:32:00,
2013-02-07 17:42:00,17.0,15.0,-100.00,ENE,70,2.0,3.0,92,0.00,,,0.00,93.000000,,2013-02-07 23:42:00,
2013-02-07 17:52:00,17.0,15.0,-100.00,ENE,70,2.0,3.0,92,0.00,,,0.00,93.000000,,2013-02-07 23:52:00,
2013-02-07 18:21:00,15.0,13.0,-100.00,East,84,1.0,3.0,93,0.00,,,0.00,17.000000,,2013-02-08 00:21:00,
2013-02-07 18:32:00,15.0,13.0,-100.00,East,84,1.0,3.0,93,0.00,,,0.00,17.000000,,2013-02-08 00:32:00,
2013-02-07 18:42:00,15.0,13.0,-100.00,East,84,1.0,3.0,93,0.00,,,0.00,17.000000,,2013-02-08 00:42:00,
2013-02-07 18:52:00,15.0,13.0,-100.00,East,84,1.0,3.0,93,0.00,,,0.00,17.000000,,2013-02-08 00:52:00,
2013-02-07 20:21:00,16.0,15.0,-100.00,ESE,107,3.0,4.0,95,-99.99,,,0.00,0.000000,,2013-02-08 02:21:00,
2013-02-07 20:32:00,16.0,15.0,-100.00,ESE,107,3.0,4.0,95,-99.99,,,0.00,0.000000,,2013-02-08 02:32:00,
2013-02-07 20:42:00,16.0,15.0,-100.00,ESE,107,3.0,4.0,95,-99.99,,,0.00,0.000000,,2013-02-08 02:42:00,
2013-02-07 20:52:00,16.0,15.0,-100.00,ESE,107,3.0,4.0,95,-99.99,,,0.00,0.000000,,2013-02-08 02:52:00,
2013-02-07 21:22:00,15.0,14.0,-100.00,SSE,152,3.0,5.0,96,0.00,,,0.00,0.000000,,2013-02-08 03:22:00,
2013-02-07 21:32:00,15.0,14.0,-100.00,SSE,152,3.0,5.0,96,0.00,,,0.00,0.000000,,2013-02-08 03:32:00,
2013-02-07 21:42:00,15.0,14.0,-100.00,SSE,152,3.0,5.0,96,0.00,,,0.00,0.000000,,2013-02-08 03:42:00,
2013-02-07 21:52:00,15.0,14.0,-100.00,SSE,152,3.0,5.0,96,0.00,,,0.00,0.000000,,2013-02-08 03:52:00,
2013-02-07 22:21:00,15.0,14.0,-100.00,SE,144,3.0,4.0,94,0.00,,,0.00,0.000000,,2013-02-08 04:21:00,
2013-02-07 22:32:00,15.0,14.0,-100.00,SE,144,3.0,4.0,94,0.00,,,0.00,0.000000,,2013-02-08 04:32:00,
2013-02-07 22:42:00,15.0,14.0,-100.00,SE,144,3.0,4.0,94,0.00,,,0.00,0.000000,,2013-02-08 04:42:00,
2013-02-07 22:51:00,15.0,14.0,-100.00,SE,144,3.0,4.0,94,0.00,,,0.00,0.000000,,2013-02-08 04:51:00,
2013-02-07 23:22:00,15.0,14.0,-100.00,ESE,120,4.0,4.0,94,0.00,,,0.00,0.000000,,2013-02-08 05:22:00,
2013-02-07 23:32:00,15.0,14.0,-100.00,ESE,120,4.0,4.0,94,0.00,,,0.00,0.000000,,2013-02-08 05:32:00,
2013-02-07 23:42:00,15.0,14.0,-100.00,ESE,120,4.0,4.0,94,0.00,,,0.00,0.000000,,2013-02-08 05:42:00,
2013-02-07 23:52:00,15.0,14.0,-100.00,ESE,120,4.0,4.0,94,0.00,,,0.00,0.000000,,2013-02-08 05:52:00,